FW2710 Weather Reports


Display with metric or nautical units.
time (UTC)temp
F
wind
direction
speed
MPH
gust
MPH
rain 1hr
in
rain 24hr
in
rain mn
in
humidity
%
barometer
mb
20260503173525 62 287 7.0 13.0 0.00 0.00 0.00 46 1013.2
20260503173046 61 287 5.0 13.0 0.00 0.00 0.00 46 1013.3
20260503172526 61 287 5.0 13.0 0.00 0.00 0.00 46 1013.8
20260503172026 61 287 7.0 13.0 0.00 0.00 0.00 46 1013.7
20260503171541 60 287 7.0 13.0 0.00 0.00 0.00 46 1013.8
20260503171026 60 287 7.0 12.0 0.00 0.00 0.00 48 1013.8
20260503170527 59 287 6.0 12.0 0.00 0.00 0.00 48 1013.6
20260503150521 55 287 5.0 11.0 0.00 0.00 0.00 58 1015.8
20260503131026 50 287 3.0 9.0 0.00 0.00 0.00 65 1016.9
20260503130522 50 287 2.0 9.0 0.00 0.00 0.00 66 1016.8
20260503110525 45 0 2.0 7.0 0.00 0.00 0.00 69 1016.6
20260503081541 43 0 0.0 1.0 0.00 0.00 0.00 67 1017.1
20260503081026 43 0 0.0 0.0 0.00 0.00 0.00 68 1017.3
20260503080526 43 0 0.0 0.0 0.00 0.00 0.00 69 1017.3
20260503072528 40 0 0.0 0.0 0.00 0.00 0.00 73 1017.3
20260503072028 40 0 0.0 0.0 0.00 0.00 0.00 73 1017.3
20260503071538 40 0 0.0 0.0 0.00 0.00 0.00 73 1017.3
20260503071026 40 0 0.0 0.0 0.00 0.00 0.00 73 1017.4
20260503070526 40 0 0.0 0.0 0.00 0.00 0.00 74 1017.5
20260503055026 40 0 0.0 0.0 0.00 0.00 0.00 72 1018.1
20260503054556 40 0 0.0 0.0 0.00 0.00 0.00 71 1018.1
20260503054026 40 0 0.0 0.0 0.00 0.00 0.00 71 1018.1
20260503053526 40 0 0.0 0.0 0.00 0.00 0.00 71 1018.3
20260503053040 40 0 0.0 0.0 0.00 0.00 0.00 71 1018.2
20260503052527 40 0 0.0 0.0 0.00 0.00 0.00 72 1018.3
20260503052026 40 0 0.0 0.0 0.00 0.00 0.00 72 1018.3
20260503051538 40 0 0.0 0.0 0.00 0.00 0.00 72 1018.3
20260503051026 40 0 0.0 0.0 0.00 0.00 0.00 71 1018.3
20260503050529 40 0 0.0 0.0 0.00 0.00 0.00 71 1018.3
20260503050040 40 0 0.0 0.0 0.00 0.00 0.00 71 1018.3
20260503045527 40 0 0.0 0.0 0.00 0.00 0.00 71 1018.2
20260503045030 40 0 0.0 0.0 0.00 0.00 0.00 71 1018.4
20260503044542 40 0 0.0 0.0 0.00 0.00 0.00 70 1018.2
20260503044026 40 0 0.0 0.0 0.00 0.00 0.00 71 1018.3
20260503043526 40 0 0.0 0.0 0.00 0.00 0.00 71 1018.3
20260503043051 40 0 0.0 0.0 0.00 0.00 0.00 70 1018.4
20260503042526 40 0 0.0 0.0 0.00 0.00 0.00 70 1018.4
20260503042026 40 0 0.0 0.0 0.00 0.00 0.00 69 1018.4
20260503041542 41 0 0.0 0.0 0.00 0.00 0.00 69 1018.4
20260503041027 41 0 0.0 0.0 0.00 0.00 0.00 70 1018.5
20260503040530 41 0 0.0 0.0 0.00 0.00 0.00 70 1018.4
20260503040041 41 0 0.0 0.0 0.00 0.00 0.00 69 1018.5
20260503035526 41 0 0.0 0.0 0.00 0.00 0.00 69 1018.5
20260503035026 41 0 0.0 0.0 0.00 0.00 0.00 69 1018.6
20260503034544 41 0 0.0 0.0 0.00 0.00 0.00 69 1018.6
20260503034026 41 0 0.0 0.0 0.00 0.00 0.00 69 1018.5
20260503033526 41 0 0.0 0.0 0.00 0.00 0.00 68 1018.5
20260503033038 41 0 0.0 0.0 0.00 0.00 0.00 68 1018.5
20260503032526 42 0 0.0 0.0 0.00 0.00 0.00 67 1018.6
20260503032027 42 0 0.0 0.0 0.00 0.00 0.00 67 1018.6
20260503031543 42 0 0.0 0.0 0.00 0.00 0.00 66 1018.5
20260503031027 42 0 0.0 0.0 0.00 0.00 0.00 66 1018.6
20260503030526 42 0 0.0 0.0 0.00 0.00 0.00 66 1018.7
20260503030043 42 0 0.0 0.0 0.00 0.00 0.00 66 1018.6
20260503025527 43 0 0.0 0.0 0.00 0.00 0.00 65 1018.6
20260503025026 43 0 0.0 0.0 0.00 0.00 0.00 64 1018.6
20260503024541 43 0 0.0 0.0 0.00 0.00 0.00 64 1018.7
20260503024026 43 0 0.0 0.0 0.00 0.00 0.00 64 1018.6
20260503023527 43 0 0.0 0.0 0.00 0.00 0.00 63 1018.6
20260503023039 43 0 0.0 0.0 0.00 0.00 0.00 63 1018.7
20260503022525 43 0 0.0 0.0 0.00 0.00 0.00 62 1018.6
20260503022042 43 0 0.0 0.0 0.00 0.00 0.00 61 1018.6
20260503021538 43 0 0.0 0.0 0.00 0.00 0.00 61 1018.6
20260503021027 44 0 0.0 0.0 0.00 0.00 0.00 61 1018.6
20260503020526 44 0 0.0 0.0 0.00 0.00 0.00 61 1018.5
20260503020039 44 0 0.0 0.0 0.00 0.00 0.00 59 1018.6
20260503015526 45 0 0.0 0.0 0.00 0.00 0.00 59 1018.4
20260503015026 45 0 0.0 0.0 0.00 0.00 0.00 59 1018.5
20260503014544 45 0 0.0 0.0 0.00 0.00 0.00 57 1018.4
20260503014026 46 0 0.0 0.0 0.00 0.00 0.00 57 1018.3
20260503013527 46 0 0.0 0.0 0.00 0.00 0.00 56 1018.4
20260503013043 47 0 0.0 0.0 0.00 0.00 0.00 56 1018.3
20260503012525 47 0 0.0 0.0 0.00 0.00 0.00 55 1018.2
20260503012026 48 0 0.0 0.0 0.00 0.00 0.00 54 1018.3
20260503011539 49 0 0.0 0.0 0.00 0.00 0.00 52 1018.2
20260503011026 50 0 0.0 0.0 0.00 0.00 0.00 49 1018.2
20260503010525 51 0 0.0 0.0 0.00 0.00 0.00 48 1018.2
20260503010041 51 0 0.0 0.0 0.00 0.00 0.00 47 1018.2
20260503005527 51 0 0.0 0.0 0.00 0.00 0.00 46 1018.2
20260503005030 52 0 0.0 0.0 0.00 0.00 0.00 44 1018.2
20260503004547 52 0 0.0 0.0 0.00 0.00 0.00 43 1018.3
20260503004026 53 0 0.0 0.0 0.00 0.00 0.00 42 1018.4
20260503003527 53 0 0.0 0.0 0.00 0.00 0.00 42 1018.2
20260503003047 53 0 0.0 0.0 0.00 0.00 0.00 42 1018.2
20260503002527 54 0 0.0 0.0 0.00 0.00 0.00 41 1018.2
20260503002027 54 0 0.0 0.0 0.00 0.00 0.00 39 1018.2
20260503001547 54 0 0.0 0.0 0.00 0.00 0.00 39 1018.2
20260503001027 55 0 0.0 0.0 0.00 0.00 0.00 39 1018.1
20260503000525 55 0 0.0 4.0 0.00 0.00 0.00 38 1018.1
20260503000043 55 0 0.0 4.0 0.00 0.00 0.00 38 1018.2
20260502235526 55 0 0.0 4.0 0.00 0.00 0.00 37 1018.1
20260502235027 56 0 0.0 4.0 0.00 0.00 0.00 36 1018.1
20260502234549 56 0 0.0 4.0 0.00 0.00 0.00 34 1018.2
20260502234026 56 0 0.0 4.0 0.00 0.00 0.00 35 1018.2
20260502233525 56 287 0.0 4.0 0.00 0.00 0.00 37 1018.2
20260502233041 56 0 0.0 0.0 0.00 0.00 0.00 35 1018.2
20260502232526 56 0 0.0 0.0 0.00 0.00 0.00 35 1018.3
20260502232026 56 0 0.0 0.0 0.00 0.00 0.00 34 1018.3
20260502231542 56 0 0.0 0.0 0.00 0.00 0.00 34 1018.4
20260502231026 56 0 0.0 0.0 0.00 0.00 0.00 32 1018.4
20260502230526 56 0 0.0 0.0 0.00 0.00 0.00 35 1018.5
20260502230047 56 0 0.0 0.0 0.00 0.00 0.00 32 1018.5
20260502225526 56 0 0.0 0.0 0.00 0.00 0.00 32 1018.5
20260502225026 57 0 0.0 0.0 0.00 0.00 0.00 33 1018.5
20260502224545 57 0 0.0 0.0 0.00 0.00 0.00 31 1018.6
20260502224026 57 0 0.0 8.0 0.00 0.00 0.00 31 1018.5
20260502223526 57 0 0.0 8.0 0.00 0.00 0.00 32 1018.6
20260502223043 57 287 1.0 8.0 0.00 0.00 0.00 34 1018.5
20260502222526 57 287 0.0 8.0 0.00 0.00 0.00 34 1018.5
20260502222025 56 0 0.0 0.0 0.00 0.00 0.00 34 1018.5
20260502221539 55 0 0.0 0.0 0.00 0.00 0.00 36 1018.5
20260502221026 55 0 0.0 0.0 0.00 0.00 0.00 36 1018.6
20260502220526 55 0 0.0 0.0 0.00 0.00 0.00 37 1018.6
20260502220035 55 0 0.0 0.0 0.00 0.00 0.00 35 1018.7
20260502215526 55 0 0.0 0.0 0.00 0.00 0.00 35 1018.6
20260502215026 55 0 0.0 0.0 0.00 0.00 0.00 38 1018.6
20260502214554 55 0 0.0 0.0 0.00 0.00 0.00 36 1018.7
20260502214027 55 0 0.0 0.0 0.00 0.00 0.00 35 1018.7
20260502213526 55 0 0.0 0.0 0.00 0.00 0.00 34 1018.7
20260502213039 56 0 0.0 0.0 0.00 0.00 0.00 34 1018.6
20260502212523 56 0 0.0 0.0 0.00 0.00 0.00 33 1018.7
20260502212026 56 0 0.0 1.0 0.00 0.00 0.00 34 1018.7
20260502211538 56 0 0.0 6.0 0.00 0.00 0.00 33 1018.7
20260502211026 57 0 0.0 6.0 0.00 0.00 0.00 33 1018.8
20260502210526 57 0 0.0 4.0 0.00 0.00 0.00 32 1018.8
20260502210049 59 0 0.0 7.0 0.00 0.00 0.00 33 1018.8
20260502205526 59 0 0.0 7.0 0.00 0.00 0.00 33 1018.8
20260502205026 57 0 0.0 0.0 0.00 0.00 0.00 39 1018.8
20260502204548 57 0 0.0 3.0 0.00 0.00 0.00 33 1018.9
20260502204026 58 0 0.0 6.0 0.00 0.00 0.00 32 1019.0
20260502203528 59 0 0.0 6.0 0.00 0.00 0.00 32 1019.1
20260502203046 58 287 0.0 6.0 0.00 0.00 0.00 39 1019.1
20260502202525 58 0 0.0 6.0 0.00 0.00 0.00 33 1019.2
20260502202025 59 0 0.0 4.0 0.00 0.00 0.00 33 1019.2
20260502201538 59 0 0.0 6.0 0.00 0.00 0.00 35 1019.2
20260502201027 58 0 0.0 6.0 0.00 0.00 0.00 38 1019.2
20260502200526 57 0 0.0 6.0 0.00 0.00 0.00 38 1019.2
20260502200039 56 0 0.0 0.0 0.00 0.00 0.00 36 1019.4
20260502195526 56 0 0.0 1.0 0.00 0.00 0.00 36 1019.4
20260502195026 57 0 0.0 3.0 0.00 0.00 0.00 33 1019.4
20260502194534 56 0 0.0 3.0 0.00 0.00 0.00 33 1019.5
20260502194026 55 0 0.0 2.0 0.00 0.00 0.00 33 1019.6
20260502193526 55 0 0.0 2.0 0.00 0.00 0.00 36 1019.6
20260502193040 55 0 0.0 0.0 0.00 0.00 0.00 35 1019.7
20260502192527 55 0 0.0 0.0 0.00 0.00 0.00 35 1019.6
20260502192026 55 0 0.0 3.0 0.00 0.00 0.00 35 1019.7
20260502191542 55 0 0.0 3.0 0.00 0.00 0.00 35 1019.8
20260502191028 55 0 0.0 3.0 0.00 0.00 0.00 35 1019.9
20260502190526 54 0 0.0 1.0 0.00 0.00 0.00 37 1019.9
20260502190043 54 0 0.0 1.0 0.00 0.00 0.00 35 1020.0
20260502185525 54 0 0.0 2.0 0.00 0.00 0.00 34 1020.0
20260502185025 54 0 0.0 2.0 0.00 0.00 0.00 37 1020.0
20260502184540 54 0 0.0 7.0 0.00 0.00 0.00 37 1020.1
20260502184026 53 0 0.0 7.0 0.00 0.00 0.00 33 1020.1
20260502183526 53 0 0.0 7.0 0.00 0.00 0.00 37 1020.2
20260502183042 54 0 0.0 4.0 0.00 0.00 0.00 35 1020.1
20260502182526 54 0 0.0 3.0 0.00 0.00 0.00 34 1020.2
20260502182026 54 0 0.0 8.0 0.00 0.00 0.00 37 1020.2
20260502181545 54 0 0.0 8.0 0.00 0.00 0.00 38 1020.2
20260502181026 53 0 0.0 8.0 0.00 0.00 0.00 34 1020.3
20260502180526 53 0 0.0 1.0 0.00 0.00 0.00 36 1020.3